sat.trackr.live / text

‹ back to catalog

STARLINK-35174

NORAD 65615 · 2025-207Z

PAYLOAD ACTIVE UNKNOWN

§ Identity

Operator
Country
US
Launch date
2025-09-13
Launch site
AFWTR
Launch vehicle
Mass (kg)
RCS (m²)

Purposes: comms

External: N2YO · Heavens-Above · Gunter

§ Orbital elements

Epoch: 2026-05-25T03:39:41.271264Z

Period
95.64 min
Inclination
97.4502°
Eccentricity
0.0002224
Mean motion
15.05642489 rev/d
Perigee alt
548.0 km
Apogee alt
551.1 km
Semi-major
6,927.7 km
B*
-3.2365e-5
RAAN
213.6137°
Arg perigee
162.3330°
Mean anomaly
197.7975°
Rev number
3,976

§ Raw data

STARLINK-351741 65615U 25207Z   26145.15256101 -.00000526  00000+0 -32365-4 0  99952 65615  97.4502 213.6137 0002224 162.3330 197.7975 15.05642489 39767

JSON: /api/v1/satellites/65615 · /tle

For live sub-satellite position, see the globe view (requires WebGL).

§ Visibility from observer

Set your observer location to see the next 7 days of passes ≥ 10°. The values pass through the URL so the page stays shareable.

No JS? Fill the form by hand. The geolocation button needs JavaScript.